This is the latest recevied weather packets stored in our database for station/object K8MUD. If no packets are shown the sender has not sent any weather packets the latest 1 day(s).
| Time | Temp. | Humidity | Pressure | Rain* | Wind** | Luminosity | Snow |
|---|---|---|---|---|---|---|---|
| 1778030805 | 12.78° C | 58% | 1007.2 hPa | 0 mm | 0.45 m/s, 271° | - | - |
| 1778030505 | 12.78° C | 57% | 1007.2 hPa | 0 mm | 0.89 m/s, 271° | - | - |
| 1778030205 | 12.78° C | 56% | 1007.2 hPa | 0 mm | 0.89 m/s, 271° | - | - |
| 1778029905 | 12.78° C | 57% | 1007.3 hPa | 0 mm | 1.34 m/s, 278° | - | - |
| 1778029605 | 12.78° C | 56% | 1007.3 hPa | 0 mm | 1.34 m/s, 282° | - | - |
| 1778029305 | 12.78° C | 57% | 1007.4 hPa | 0 mm | 1.34 m/s, 273° | - | - |
| 1778029004 | 12.78° C | 57% | 1007.2 hPa | 0 mm | 1.34 m/s, 268° | - | - |
| 1778028704 | 12.78° C | 58% | 1007.3 hPa | 0 mm | 1.34 m/s, 266° | - | - |
| 1778028404 | 12.78° C | 58% | 1007.3 hPa | 0 mm | 1.34 m/s, 263° | - | - |
| 1778028104 | 12.78° C | 58% | 1007.4 hPa | 0 mm | 1.79 m/s, 270° | - | - |
| 1778027774 | 12.78° C | 58% | 1007.4 hPa | 0 mm | 1.79 m/s, 273° | - | - |
| 1778027474 | 12.78° C | 58% | 1007.3 hPa | 0 mm | 2.24 m/s, 272° | - | - |
| 1778027174 | 12.78° C | 59% | 1007.2 hPa | 0 mm | 2.24 m/s, 273° | - | - |
| 1778026874 | 13.33° C | 59% | 1007.1 hPa | 0 mm | 2.68 m/s, 275° | - | - |
| 1778026574 | 13.33° C | 61% | 1007 hPa | 0 mm | 2.24 m/s, 269° | - | - |
| 1778026274 | 13.33° C | 63% | 1006.8 hPa | 0 mm | 0.89 m/s, 258° | - | - |
| 1778025974 | 13.33° C | 67% | 1006.8 hPa | 0 mm | 0.45 m/s, 248° | - | - |
| 1778025674 | 13.33° C | 67% | 1006.7 hPa | 0 mm | 0.89 m/s, 248° | - | - |
| 1778025374 | 13.33° C | 67% | 1006.5 hPa | 0 mm | 0.89 m/s, 248° | - | - |
| 1778025074 | 13.33° C | 67% | 1006.5 hPa | 0 mm | 0.89 m/s, 249° | - | - |
| 1778024774 | 13.33° C | 67% | 1006.6 hPa | 0 mm | 1.34 m/s, 250° | - | - |
| 1778024473 | 13.33° C | 67% | 1006.4 hPa | 0 mm | 1.34 m/s, 261° | - | - |
| 1778024173 | 13.33° C | 67% | 1006.5 hPa | 0 mm | 0.89 m/s, 274° | - | - |
| 1778023873 | 13.33° C | 67% | 1006.4 hPa | 0 mm | 0.89 m/s, 274° | - | - |
| 1778023573 | 13.33° C | 67% | 1006.4 hPa | 0 mm | 0.89 m/s, 273° | - | - |
* Rain latest hour (hover to see other rain measurements)
** Current wind speed in m/s (hover to see current wind gust speed)